User: anonymous   Login
Location: Bailleul
(50.3375°N, 2.8513°E)
Time: 13:45:42
(UTC+00:00)
Language:

Meteor 2-11 Rocket - Orbit

View from above orbital plane
View from above orbital plane
View from above satellite
View from above satellite

Ground track
Ground track

The orbit data is extracted from the following two-line orbital elements,

1 15100U 84072B   21265.14567827  .00000034  00000-0  17519-4 0  9998
2 15100  82.5335 342.2348 0010688 295.6616  64.3440 13.84450051880467
Epoch (UTC): 22 September 2021 03:29:46
Eccentricity: 0.0010688
inclination: 82.5335°
perigee height: 940 km
apogee height: 956 km
right ascension of ascending node: 342.2348°
argument of perigee: 295.6616°
revolutions per day: 13.84450051
mean anomaly at epoch: 64.3440°
orbit number at epoch: 88046

The dashed part of the orbit path shows where the satellite is in the earth's shadow,  

DLR